This page uses our WeatherBlox Daily Observations layout. Learn more.

39.04372, -77.48749

Hourly Observations for February 14, 2018

Temp ( °F °C ) Dew Point ( °F °C ) Humidity (%) Winds ( mph kmh ) Pressure ( in mb ) Visibility ( mi km ) Precip ( " mm )
12:15 am 00:15 Clear 34 1 28 -2 81 S 6 9 30.56 1035 10 16 0.00 0.00
12:35 am 00:35 Clear 34 1 28 -2 81 S 6 9 30.53 1034 10 16 0.00 0.00
12:55 am 00:55 Clear 34 1 28 -2 81 S 6 9 30.53 1034 10 16 0.00 0.00
1:15 am 01:15 Clear 34 1 30 -1 87 S 7 11 30.53 1034 10 16 0.00 0.00
1:35 am 01:35 Partly Cloudy 32 0 28 -2 87 S 5 7 30.53 1034 10 16 0.00 0.00
1:55 am 01:55 Partly Cloudy 32 0 30 -1 93 S 5 7 30.53 1034 10 16 0.00 0.00
2:15 am 02:15 Clear 32 0 28 -2 87 S 7 11 30.53 1034 10 16 0.00 0.00
2:35 am 02:35 Clear 32 0 30 -1 93 S 8 13 30.50 1033 10 16 0.00 0.00
2:55 am 02:55 Partly Cloudy 32 0 30 -1 93 SSE 5 7 30.50 1033 10 16 0.00 0.00
3:15 am 03:15 Partly Cloudy 32 0 30 -1 93 SSW 5 7 30.48 1032 10 16 0.00 0.00
3:35 am 03:35 Mostly Cloudy 32 0 30 -1 93 S 6 9 30.48 1032 10 16 0.00 0.00
3:55 am 03:55 Mostly Cloudy 32 0 30 -1 93 Calm 30.48 1032 10 16 0.00 0.00
4:15 am 04:15 Partly Cloudy 32 0 30 -1 93 Calm 30.48 1032 10 16 0.00 0.00
4:35 am 04:35 Clear 32 0 30 -1 93 SSE 3 6 30.45 1031 10 16 0.00 0.00
4:55 am 04:55 Clear 32 0 30 -1 93 Calm 30.48 1032 10 16 0.00 0.00
5:15 am 05:15 Partly Cloudy 32 0 30 -1 93 Calm 30.45 1031 10 16 0.00 0.00
5:35 am 05:35 Partly Cloudy 32 0 30 -1 93 Calm 30.45 1031 10 16 0.00 0.00
5:55 am 05:55 Clear 32 0 30 -1 93 Calm 30.45 1031 10 16 0.00 0.00
6:15 am 06:15 Clear 32 0 30 -1 93 Calm 30.45 1031 10 16 0.00 0.00
6:35 am 06:35 Clear 32 0 30 -1 93 S 6 9 30.42 1030 10 16 0.00 0.00
6:55 am 06:55 Clear 32 0 30 -1 93 SSW 6 9 30.42 1030 10 16 0.00 0.00
7:15 am 07:15 Sunny 32 0 30 -1 93 S 6 9 30.42 1030 10 16 0.00 0.00
7:35 am 07:35 Sunny 32 0 30 -1 93 SSW 5 7 30.42 1030 10 16 0.00 0.00
7:55 am 07:55 Sunny 32 0 32 0 100 S 5 7 30.42 1030 10 16 0.00 0.00
8:15 am 08:15 Sunny 32 0 32 0 100 SSW 3 6 30.42 1030 10 16 0.00 0.00
8:35 am 08:35 Sunny 34 1 32 0 93 SSW 6 9 30.42 1030 10 16 0.00 0.00
8:55 am 08:55 Sunny 36 2 32 0 87 SSW 5 7 30.42 1030 10 16 0.00 0.00
9:15 am 09:15 Sunny 36 2 32 0 87 S 3 6 30.42 1030 10 16 0.00 0.00
9:35 am 09:35 Sunny 37 3 32 0 81 Calm 30.42 1030 10 16 0.00 0.00
9:55 am 09:55 Sunny 37 3 32 0 81 Calm 30.42 1030 10 16 0.00 0.00
10:15 am 10:15 Mostly Cloudy 37 3 32 0 81 Calm 30.42 1030 10 16 0.00 0.00
10:35 am 10:35 Mostly Cloudy 37 3 32 0 81 S 3 6 30.39 1029 10 16 0.00 0.00
10:55 am 10:55 Sunny 41 5 34 1 76 SW 5 7 30.39 1029 10 16 0.00 0.00
11:15 am 11:15 Sunny 41 5 34 1 76 Calm 30.39 1029 10 16 0.00 0.00
11:35 am 11:35 Sunny 41 5 34 1 76 S 5 7 30.39 1029 10 16 0.00 0.00
11:55 am 11:55 Sunny 43 6 36 2 76 SW 5 7 30.36 1028 10 16 0.00 0.00
12:15 pm 12:15 Sunny 43 6 36 2 76 SW 6 9 30.36 1028 10 16 0.00 0.00
12:40 pm 12:40 Mostly Cloudy 45 7 36 2 71 S 5 7 30.33 1027 10 16 0.00 0.00
12:55 pm 12:55 Partly Cloudy 45 7 36 2 71 SSE 6 9 30.33 1027 10 16 0.00 0.00
1:15 pm 13:15 Mostly Cloudy 45 7 36 2 71 S 7 11 30.33 1027 10 16 0.00 0.00
1:35 pm 13:35 Partly Cloudy 46 8 37 3 71 S 8 13 30.30 1026 10 16 0.00 0.00
1:55 pm 13:55 Partly Cloudy 48 9 37 3 66 S 5 7 30.30 1026 10 16 0.00 0.00
2:15 pm 14:15 Sunny 46 8 37 3 71 S 3 6 30.30 1026 10 16 0.00 0.00
2:35 pm 14:35 Sunny 48 9 37 3 66 SSW 5 7 30.27 1025 10 16 0.00 0.00
2:55 pm 14:55 Sunny 50 10 39 4 67 S 5 7 30.27 1025 10 16 0.00 0.00
3:15 pm 15:15 Partly Cloudy 50 10 41 5 71 SSW 5 7 30.27 1025 10 16 0.00 0.00
3:35 pm 15:35 Partly Cloudy 52 11 41 5 67 S 5 7 30.24 1024 10 16 0.00 0.00
3:55 pm 15:55 Sunny 52 11 43 6 72 S 6 9 30.24 1024 10 16 0.00 0.00
4:15 pm 16:15 Sunny 52 11 43 6 72 S 6 9 30.24 1024 10 16 0.00 0.00
4:35 pm 16:35 Sunny 52 11 43 6 72 S 5 7 30.24 1024 10 16 0.00 0.00
4:55 pm 16:55 Sunny 52 11 43 6 72 Calm 30.24 1024 10 16 0.00 0.00
5:15 pm 17:15 Sunny 52 11 43 6 72 SSE 3 6 30.21 1023 10 16 0.00 0.00
5:35 pm 17:35 Sunny 52 11 43 6 72 Calm 30.21 1023 10 16 0.00 0.00
5:55 pm 17:55 Clear 52 11 43 6 72 Calm 30.21 1023 10 16 0.00 0.00
6:15 pm 18:15 Clear 50 10 43 6 76 S 3 6 30.21 1023 10 16 0.00 0.00
6:35 pm 18:35 Clear 50 10 43 6 76 S 3 6 30.21 1023 10 16 0.00 0.00
6:55 pm 18:55 Clear 50 10 43 6 76 SSE 3 6 30.18 1022 10 16 0.00 0.00
7:15 pm 19:15 Clear 46 8 43 6 87 SSE 3 6 30.18 1022 10 16 0.00 0.00
7:35 pm 19:35 Clear 48 9 43 6 82 Calm 30.18 1022 10 16 0.00 0.00
7:55 pm 19:55 Partly Cloudy 46 8 43 6 87 S 5 7 30.18 1022 10 16 0.00 0.00
8:15 pm 20:15 Mostly Cloudy 48 9 43 6 82 SW 3 6 30.18 1022 10 16 0.00 0.00
8:35 pm 20:35 Cloudy 45 7 43 6 93 SSW 3 6 30.15 1021 10 16 0.00 0.00
8:55 pm 20:55 Partly Cloudy 48 9 43 6 82 SSE 6 9 30.12 1020 10 16 0.00 0.00
9:15 pm 21:15 Clear 48 9 43 6 82 SSW 5 7 30.12 1020 10 16 0.00 0.00
9:35 pm 21:35 Partly Cloudy 48 9 43 6 82 Calm 30.12 1020 10 16 0.00 0.00
9:55 pm 21:55 Mostly Cloudy 48 9 45 7 87 S 7 11 30.12 1020 10 16 0.00 0.00
10:15 pm 22:15 Cloudy 46 8 45 7 93 SSW 5 7 30.12 1020 10 16 0.00 0.00
10:35 pm 22:35 Cloudy with Light Rain 46 8 46 8 100 Calm 30.12 1020 10 16 0.00 0.00
10:55 pm 22:55 Cloudy with Light Rain 50 10 46 8 88 S 6 9 30.12 1020 10 16 0.00 0.00
11:15 pm 23:15 Cloudy with Light Rain 50 10 50 10 100 S 6 9 30.09 1019 10 16 0.00 0.00
11:35 pm 23:35 Cloudy with Light Rain 50 10 50 10 100 S 6 9 30.09 1019 10 16 0.00 0.00
11:55 pm 23:55 Cloudy 50 10 50 10 100 SSW 3 6 30.03 1017 10 16 0.00 0.00